User: anonymous   Login
Location: Unspecified
(0.0000°N, 0.0000°E)
Time: 03:31:36
(UTC+00:00)
Language:

FEDSAT - Orbit

View from above orbital plane
View from above orbital plane
View from above satellite
View from above satellite

Ground track
Ground track

The orbit data is extracted from the following two-line orbital elements,

1 27598U 02056B   17173.82090319 -.00000020 +00000-0 +90289-5 0  9991
2 27598 098.4330 129.3336 0008201 223.0840 136.9701 14.28625973757145
Epoch (UTC): 22 June 2017 19:42:06
Eccentricity: 0.0008201
inclination: 98.4330°
perigee height: 790 km
apogee height: 802 km
right ascension of ascending node: 129.3336°
argument of perigee: 223.0840°
revolutions per day: 14.28625973
mean anomaly at epoch: 136.9701°
orbit number at epoch: 75714

The dashed part of the orbit path shows where the satellite is in the earth's shadow,  

DLR